JA3VQW-13 Hirakata JP current weather conditions

sailwx.info

Wind from 270

Air temperature 37.2° C
Dewpoint 15.1° C

Last reported at 2016-Jul-30 03:39 UTC.
Time now 2016-Jul-30 05:26 UTC

Location: N 34°48' E 135°40'.
View on Google Maps.

See reports from other nearby stations

  
Tides and Currents Weather Stations Pressure Air Temp Water Temp Dewpoint Dewpoint Depression Visibility Wind Speed Wind Dir Waves Ship Positions
date/time (UTC)wind fromknots sea level pressurealtimeterstation pressurevisibilityair tempwater tempwave heightnotes
2016-Jul-30 04:39 135 38.9
2016-Jul-30 04:09 315 37.8
2016-Jul-30 03:39 270 37.2
2016-Jul-30 03:09 045 35.6
2016-Jul-30 02:39 343 34.4
2016-Jul-30 02:09 292 32.8
2016-Jul-30 01:39 270 32.2
2016-Jul-30 01:09 270 31.1
2016-Jul-30 00:39 135 30.6
2016-Jul-30 00:09 270 30.6
2016-Jul-29 23:39 225 29.4
2016-Jul-29 23:31 315 29.4
2016-Jul-29 23:01 112 28.3
2016-Jul-29 22:31 112 27.2
2016-Jul-29 22:01 112 27.2
2016-Jul-29 21:31 112 26.1
2016-Jul-29 21:01 112 25.0
2016-Jul-29 20:31 112 25.6
2016-Jul-29 20:01 135 25.0
2016-Jul-29 19:31 135 25.6
2016-Jul-29 19:01 135 26.1
2016-Jul-29 18:31 135 1 gusting 1 26.1
2016-Jul-29 18:01 292 27.2
2016-Jul-29 17:31 292 27.8
2016-Jul-29 17:01 292 27.2
2016-Jul-29 16:31 292 27.8
2016-Jul-29 16:01 270 27.8
2016-Jul-29 15:31 292 27.8
2016-Jul-29 15:01 292 27.8
2016-Jul-29 14:31 270 0 27.8
2016-Jul-29 14:01 270 28.3
2016-Jul-29 13:31 270 28.3
2016-Jul-29 13:01 293 28.3
2016-Jul-29 12:31 307 28.3
2016-Jul-29 12:01 229 28.9
2016-Jul-29 11:31 299 1 gusting 4 28.9
2016-Jul-29 11:01 315 29.4
2016-Jul-29 10:31 282 4 gusting 4 30.0
2016-Jul-29 10:01 185 0 gusting 2 30.6
2016-Jul-29 09:31 295 31.7
2016-Jul-29 09:01 236 1 gusting 2 32.8
2016-Jul-29 08:31 286 4 gusting 4 35.0
2016-Jul-29 08:01 171 8.3
2016-Jul-29 07:31 158 8.3
2016-Jul-29 07:01 158 8.3
2016-Jul-29 06:31 158 8.3
2016-Jul-29 06:01 158 8.3
2016-Jul-29 05:31 158 8.3
2016-Jul-29 05:01 158 8.3
2016-Jul-29 04:31 135 8.3
2016-Jul-29 04:01 135 8.3
2016-Jul-29 03:31 135 8.3
2016-Jul-29 03:01 135 8.3
2016-Jul-29 02:31 135 8.3
2016-Jul-29 02:01 135 8.3
2016-Jul-29 01:31 135 8.3
2016-Jul-29 01:01 135 8.3
2016-Jul-29 00:31 135 8.3
2016-Jul-29 00:01 135 8.3
2016-Jul-28 23:31 135 8.3
2016-Jul-28 23:01 135 8.3
2016-Jul-28 22:31 135 8.3
2016-Jul-28 22:01 135 8.3
2016-Jul-28 21:31 135 8.3
2016-Jul-28 21:01 135 8.3
2016-Jul-28 20:30 135 8.3
2016-Jul-28 20:01 135 8.3
2016-Jul-28 19:31 135 8.3
2016-Jul-28 19:01 135 8.3
2016-Jul-28 18:31 135 8.3
2016-Jul-28 18:01 135 8.3
2016-Jul-28 17:31 135 8.3
2016-Jul-28 17:01 135 8.3
2016-Jul-28 16:31 135 8.3
2016-Jul-28 16:01 135 8.3
2016-Jul-28 15:31 135 8.3
2016-Jul-28 15:01 135 8.3
2016-Jul-28 14:31 135 8.3
2016-Jul-28 14:01 135 8.3
2016-Jul-28 13:31 135 8.3
2016-Jul-28 13:01 135 8.3
2016-Jul-28 12:31 135 8.3
2016-Jul-28 12:01 135 8.3
2016-Jul-28 11:31 135 8.3
2016-Jul-28 11:01 135 8.3
2016-Jul-28 10:31 135 8.3
2016-Jul-28 10:01 135 8.3
2016-Jul-28 09:31 135 8.3
2016-Jul-28 09:01 135 8.3
2016-Jul-28 08:57 135 8.3
2016-Jul-28 08:31 270 8.3
2016-Jul-28 08:01 315 26.7
2016-Jul-28 07:31 315 26.7
2016-Jul-28 07:01 158 27.8
2016-Jul-28 06:31 159 1 gusting 2 31.1
2016-Jul-28 06:01 307 4 gusting 5 33.9
2016-Jul-28 05:31 135 37.8
2016-Jul-28 05:01 292 35.0